This is the latest recevied weather packets stored in our database for station/object N1HRK. If no packets are shown the sender has not sent any weather packets the latest 10 day(s).
| Time | Temp. | Humidity | Pressure | Rain* | Wind** | Luminosity | Snow |
|---|---|---|---|---|---|---|---|
| 1777429579 | 8.33° C | 76% | 1018.5 hPa | 0 mm | - | - | - |
| 1777429154 | 9.44° C | 76% | 1018.7 hPa | 0 mm | - | - | - |
| 1777428979 | 9.44° C | 75% | 1018.8 hPa | 0 mm | - | - | - |
| 1777428553 | 9.44° C | 75% | 1018.6 hPa | 0 mm | - | - | - |
| 1777428379 | 10° C | 75% | 1018.5 hPa | 0 mm | - | - | - |
| 1777427953 | 9.44° C | 75% | 1018.5 hPa | 0 mm | - | - | - |
| 1777427780 | 10° C | 74% | 1018.6 hPa | 0 mm | - | - | - |
| 1777427353 | 10° C | 74% | 1018.7 hPa | 0 mm | - | - | - |
| 1777427178 | 10° C | 73% | 1018.7 hPa | 0 mm | - | - | - |
| 1777426754 | 10° C | 72% | 1018.8 hPa | 0 mm | - | - | - |
| 1777426580 | 10° C | 71% | 1018.9 hPa | 0 mm | - | - | - |
| 1777426154 | 10° C | 70% | 1018.9 hPa | 0 mm | - | - | - |
| 1777425980 | 10.56° C | 69% | 1018.9 hPa | 0 mm | - | - | - |
| 1777425552 | 11.11° C | 68% | 1019 hPa | 0 mm | - | - | - |
| 1777425378 | 10.56° C | 68% | 1019 hPa | 0 mm | - | - | - |
| 1777424954 | 11.11° C | 68% | 1018.9 hPa | 0 mm | - | - | - |
| 1777424780 | 10.56° C | 67% | 1018.9 hPa | 0 mm | - | - | - |
| 1777424353 | 10.56° C | 67% | 1018.9 hPa | 0 mm | - | - | - |
| 1777424180 | 10.56° C | 66% | 1018.9 hPa | 0 mm | - | - | - |
| 1777423754 | 11.11° C | 66% | 1018.9 hPa | 0 mm | - | - | - |
| 1777423580 | 11.11° C | 65% | 1019 hPa | 0 mm | - | - | - |
| 1777423154 | 11.67° C | 65% | 1018.9 hPa | 0 mm | - | - | - |
| 1777422980 | 10.56° C | 64% | 1018.9 hPa | 0 mm | - | - | - |
| 1777422553 | 11.11° C | 64% | 1018.8 hPa | 0 mm | - | - | - |
| 1777422380 | 11.11° C | 63% | 1018.9 hPa | 0 mm | - | - | - |
* Rain latest hour (hover to see other rain measurements)
** Current wind speed in m/s (hover to see current wind gust speed)